User: anonymous   Login
Location: Sungai Ketit
(2.6833°N, 113.2333°E)
Time: 19:35:39
(UTC+00:00)
Language:

Cosmos 2173 Rocket - Orbit

View from above orbital plane
View from above orbital plane
View from above satellite
View from above satellite

Ground track
Ground track

The orbit data is extracted from the following two-line orbital elements,

1 21797U 91081B   24197.83215924  .00000096  00000-0  79746-4 0  9994
2 21797  82.9548 301.5763 0038790  44.4710  70.4094 13.77715416640103
Epoch (UTC): 15 July 2024 19:58:18
Eccentricity: 0.0038790
inclination: 82.9548°
perigee height: 943 km
apogee height: 1000 km
right ascension of ascending node: 301.5763°
argument of perigee: 44.4710°
revolutions per day: 13.77715416
mean anomaly at epoch: 70.4094°
orbit number at epoch: 64010

The dashed part of the orbit path shows where the satellite is in the earth's shadow,  

DLR